| time (UTC) | temp F | wind direction | speed MPH | gust MPH | rain 1hr in | rain 24hr in | rain mn in | humidity % | barometer mb |
| 20260508114534 | 40 | 330 | 0.0 | 0.0 | 0.00 | 0.00 | 0.00 | 87 | 1009.8 |
| 20260508113044 | 40 | 330 | 0.0 | 0.0 | 0.00 | 0.00 | 0.00 | 87 | 1009.6 |
| 20260508111528 | 40 | 330 | 0.0 | 0.0 | 0.00 | 0.00 | 0.00 | 86 | 1009.4 |
| 20260508110026 | 40 | 330 | 0.0 | 0.0 | 0.00 | 0.00 | 0.00 | 86 | 1009.4 |
| 20260508104525 | 41 | 331 | 0.0 | 0.0 | 0.00 | 0.00 | 0.00 | 85 | 1008.9 |
| 20260508103026 | 41 | 330 | 0.0 | 0.0 | 0.00 | 0.00 | 0.00 | 84 | 1008.7 |
| 20260508101528 | 41 | 329 | 0.0 | 0.0 | 0.00 | 0.00 | 0.00 | 83 | 1008.0 |
| 20260508094518 | 42 | 329 | 0.0 | 0.0 | 0.00 | 0.00 | 0.00 | 81 | 1008.4 |
| 20260508093016 | 43 | 329 | 0.0 | 0.0 | 0.00 | 0.00 | 0.00 | 81 | 1008.4 |
| 20260508091513 | 43 | 329 | 0.0 | 0.0 | 0.00 | 0.00 | 0.00 | 81 | 1008.5 |
| 20260508090011 | 44 | 329 | 0.0 | 0.0 | 0.00 | 0.00 | 0.00 | 81 | 1008.5 |
| 20260508084510 | 44 | 329 | 0.0 | 0.0 | 0.00 | 0.00 | 0.00 | 82 | 1008.6 |
| 20260508083009 | 44 | 329 | 0.0 | 0.0 | 0.00 | 0.00 | 0.00 | 81 | 1008.9 |
| 20260508081507 | 44 | 329 | 0.0 | 0.0 | 0.00 | 0.00 | 0.00 | 80 | 1009.1 |
| 20260508080003 | 45 | 329 | 0.0 | 0.0 | 0.00 | 0.00 | 0.00 | 78 | 1009.1 |
| 20260508074607 | 45 | 329 | 0.0 | 0.0 | 0.00 | 0.00 | 0.00 | 76 | 1009.7 |
| 20260508073106 | 45 | 329 | 0.0 | 0.0 | 0.00 | 0.00 | 0.00 | 75 | 1009.5 |
| 20260508071556 | 46 | 335 | 0.0 | 0.0 | 0.00 | 0.00 | 0.00 | 73 | 1009.3 |
| 20260508070051 | 48 | 335 | 0.0 | 0.0 | 0.00 | 0.00 | 0.00 | 71 | 1009.1 |
| 20260508064602 | 49 | 335 | 0.0 | 0.0 | 0.00 | 0.00 | 0.00 | 69 | 1009.2 |
| 20260508063043 | 50 | 335 | 0.0 | 0.0 | 0.00 | 0.00 | 0.00 | 67 | 1009.4 |
| 20260508061549 | 51 | 336 | 0.0 | 0.0 | 0.00 | 0.00 | 0.00 | 66 | 1009.4 |
| 20260508060040 | 51 | 336 | 0.0 | 0.0 | 0.00 | 0.00 | 0.00 | 65 | 1009.5 |
| 20260508054603 | 51 | 336 | 0.0 | 0.0 | 0.00 | 0.00 | 0.00 | 66 | 1009.9 |
| 20260508053037 | 51 | 320 | 0.0 | 0.0 | 0.00 | 0.00 | 0.00 | 65 | 1010.1 |
| 20260508051537 | 52 | 236 | 0.0 | 0.0 | 0.00 | 0.00 | 0.00 | 65 | 1009.4 |
| 20260508050040 | 53 | 298 | 0.0 | 0.0 | 0.00 | 0.00 | 0.00 | 63 | 1009.4 |
| 20260508044536 | 54 | 360 | 0.0 | 0.0 | 0.00 | 0.00 | 0.00 | 61 | 1009.3 |
| 20260508043043 | 54 | 360 | 0.0 | 0.0 | 0.00 | 0.00 | 0.00 | 60 | 1009.3 |
| 20260508041536 | 54 | 355 | 0.0 | 7.0 | 0.00 | 0.00 | 0.00 | 57 | 1009.8 |
| 20260508040043 | 55 | 308 | 0.0 | 0.0 | 0.00 | 0.00 | 0.00 | 55 | 1009.3 |
| 20260508034535 | 55 | 307 | 0.0 | 0.0 | 0.00 | 0.00 | 0.00 | 52 | 1009.1 |
| 20260508033034 | 56 | 305 | 0.0 | 0.0 | 0.00 | 0.00 | 0.00 | 52 | 1008.9 |
| 20260508031533 | 56 | 269 | 0.0 | 0.0 | 0.00 | 0.00 | 0.00 | 50 | 1009.0 |
| 20260508030033 | 57 | 259 | 4.0 | 9.0 | 0.00 | 0.00 | 0.00 | 49 | 1009.0 |
| 20260508024633 | 57 | 320 | 0.0 | 10.0 | 0.00 | 0.00 | 0.00 | 46 | 1008.9 |
| 20260508023031 | 58 | 231 | 7.0 | 16.0 | 0.00 | 0.00 | 0.00 | 46 | 1009.1 |
| 20260508021531 | 58 | 252 | 1.0 | 8.0 | 0.00 | 0.00 | 0.00 | 44 | 1009.1 |
| 20260508020033 | 60 | 315 | 0.0 | 0.0 | 0.00 | 0.00 | 0.00 | 44 | 1009.1 |
| 20260508014531 | 61 | 338 | 0.0 | 0.0 | 0.00 | 0.00 | 0.00 | 41 | 1008.6 |
| 20260508013029 | 62 | 86 | 0.0 | 0.0 | 0.00 | 0.00 | 0.00 | 43 | 1008.3 |
| 20260508011535 | 63 | 86 | 0.0 | 0.0 | 0.00 | 0.00 | 0.00 | 38 | 1008.1 |
| 20260508010037 | 64 | 86 | 0.0 | 0.0 | 0.00 | 0.00 | 0.00 | 39 | 1008.1 |
| 20260508004537 | 65 | 86 | 0.0 | 0.0 | 0.00 | 0.00 | 0.00 | 35 | 1008.0 |
| 20260508003028 | 65 | 86 | 0.0 | 0.0 | 0.00 | 0.00 | 0.00 | 32 | 1007.9 |
| 20260508001529 | 66 | 86 | 0.0 | 0.0 | 0.00 | 0.00 | 0.00 | 32 | 1008.1 |
| 20260508000026 | 67 | 86 | 0.0 | 0.0 | 0.00 | 0.00 | 0.00 | 34 | 1008.4 |
| 20260507234531 | 68 | 86 | 0.0 | 0.0 | 0.00 | 0.00 | 0.00 | 32 | 1008.2 |
| 20260507233027 | 68 | 86 | 0.0 | 0.0 | 0.00 | 0.00 | 0.00 | 27 | 1008.3 |
| 20260507231521 | 68 | 86 | 0.0 | 0.0 | 0.00 | 0.00 | 0.00 | 30 | 1008.5 |
| 20260507230019 | 69 | 292 | 0.0 | 0.0 | 0.00 | 0.00 | 0.00 | 27 | 1008.7 |
| 20260507224522 | 69 | 348 | 0.0 | 0.0 | 0.00 | 0.04 | 0.00 | 28 | 1008.9 |
| 20260507223017 | 69 | 34 | 0.0 | 0.0 | 0.00 | 0.04 | 0.00 | 27 | 1008.9 |
| 20260507221517 | 69 | 344 | 0.0 | 9.0 | 0.00 | 0.04 | 0.00 | 27 | 1009.2 |
| 20260507220013 | 70 | 257 | 0.0 | 11.0 | 0.00 | 0.04 | 0.00 | 30 | 1009.5 |
| 20260507214518 | 70 | 313 | 1.0 | 10.0 | 0.00 | 0.15 | 0.00 | 31 | 1010.0 |
| 20260507213008 | 69 | 248 | 3.0 | 9.0 | 0.00 | 0.15 | 0.00 | 30 | 1010.4 |
| 20260507211503 | 66 | 89 | 0.0 | 0.0 | 0.00 | 0.15 | 0.00 | 33 | 1010.8 |
| 20260507204558 | 63 | 344 | 0.0 | 0.0 | 0.00 | 0.25 | 0.00 | 33 | 1011.4 |
| 20260507203157 | 63 | 344 | 0.0 | 0.0 | 0.00 | 0.25 | 0.00 | 35 | 1011.7 |
| 20260507201556 | 63 | 345 | 0.0 | 0.0 | 0.00 | 0.25 | 0.00 | 34 | 1012.0 |
| 20260507200053 | 63 | 252 | 0.0 | 7.0 | 0.00 | 0.25 | 0.00 | 34 | 1012.2 |
| 20260507194550 | 64 | 256 | 2.0 | 12.0 | 0.00 | 0.43 | 0.00 | 32 | 1012.4 |
| 20260507193055 | 63 | 329 | 6.0 | 15.0 | 0.00 | 0.43 | 0.00 | 38 | 1012.7 |
| 20260507191547 | 62 | 258 | 4.0 | 14.0 | 0.00 | 0.43 | 0.00 | 39 | 1012.9 |
| 20260507190043 | 60 | 261 | 5.0 | 16.0 | 0.00 | 0.43 | 0.00 | 36 | 1013.2 |
| 20260507184541 | 60 | 242 | 0.0 | 12.0 | 0.00 | 0.48 | 0.00 | 37 | 1013.4 |
| 20260507183037 | 59 | 333 | 1.0 | 10.0 | 0.00 | 0.48 | 0.00 | 37 | 1013.6 |
| 20260507181537 | 59 | 236 | 3.0 | 10.0 | 0.00 | 0.48 | 0.00 | 39 | 1013.6 |
| 20260507180034 | 58 | 288 | 0.0 | 0.0 | 0.00 | 0.48 | 0.00 | 41 | 1014.0 |
| 20260507174546 | 57 | 292 | 0.0 | 0.0 | 0.00 | 0.51 | 0.00 | 42 | 1014.3 |
| 20260507173032 | 57 | 292 | 0.0 | 2.0 | 0.00 | 0.51 | 0.00 | 41 | 1014.4 |
| 20260507171541 | 57 | 249 | 0.0 | 2.0 | 0.00 | 0.51 | 0.00 | 39 | 1014.6 |
| 20260507170029 | 57 | 71 | 0.0 | 0.0 | 0.00 | 0.51 | 0.00 | 45 | 1014.9 |
| 20260507164529 | 57 | 71 | 0.0 | 2.0 | 0.00 | 0.53 | 0.00 | 43 | 1014.8 |
| 20260507163027 | 58 | 95 | 0.0 | 0.0 | 0.00 | 0.53 | 0.00 | 41 | 1015.1 |
| 20260507161525 | 59 | 82 | 0.0 | 0.0 | 0.00 | 0.53 | 0.00 | 41 | 1015.2 |
| 20260507160024 | 60 | 355 | 0.0 | 0.0 | 0.00 | 0.53 | 0.00 | 42 | 1015.5 |
| 20260507154523 | 61 | 69 | 0.0 | 0.0 | 0.00 | 0.54 | 0.00 | 39 | 1015.5 |
| 20260507153025 | 60 | 80 | 0.0 | 0.0 | 0.00 | 0.54 | 0.00 | 42 | 1015.7 |